Powrót do katalogu

DELTA 1 DEB

AktywnySSO
NORAD 42556·DEBRIS·🇺🇸 United States

Wystrzelony Jul 23, 1972 z Vandenberg Space Force Base

Loading…

Następne Przeloty (najbliższe 24 godziny)

TLE

ŚwieżeSource: Space-Track

Epoka: Sep 13, 2026, 09:55 UTC

1 42556U 72058JP  26256.41327652  .00001480  00000-0  47544-3 0  9995
2 42556  98.4428 317.0969 0269311 181.0720 178.9916 14.22176839659852

Śledź DELTA 1 DEB w czasie rzeczywistym z AllMySat

Download on the App Store